This is the latest recevied weather packets stored in our database for station/object K5UTC. If no packets are shown the sender has not sent any weather packets the latest 10 day(s).
| Time | Temp. | Humidity | Pressure | Rain* | Wind** | Luminosity | Snow |
|---|---|---|---|---|---|---|---|
| 1778182322 | 21.67° C | 56% | 1012.9 hPa | 0 mm | - | 829 W/m² | - |
| 1778182018 | 22.22° C | 58% | 1013 hPa | 0 mm | - | 948 W/m² | - |
| 1778181716 | 21.11° C | 59% | 1013.3 hPa | 0 mm | - | 866 W/m² | - |
| 1778181411 | 21.11° C | 59% | 1012.9 hPa | 0 mm | - | 366 W/m² | - |
| 1778181108 | 20.56° C | 57% | 1013.2 hPa | 0 mm | - | 861 W/m² | - |
| 1778180805 | 20° C | 57% | 1013 hPa | 0 mm | - | 816 W/m² | - |
| 1778180504 | 20.56° C | 58% | 1013 hPa | 0 mm | - | 868 W/m² | - |
| 1778180202 | 21.67° C | 57% | 1013 hPa | 0 mm | - | 251 W/m² | - |
| 1778179898 | 21.11° C | 61% | 1013 hPa | 0 mm | - | 884 W/m² | - |
| 1778179596 | 21.11° C | 60% | 1012.9 hPa | 0 mm | - | 876 W/m² | - |
| 1778179294 | 20.56° C | 62% | 1013 hPa | 0 mm | - | 860 W/m² | - |
| 1778178990 | 20.56° C | 62% | 1013.4 hPa | 0 mm | - | 906 W/m² | - |
| 1778178687 | 20° C | 61% | 1013.3 hPa | 0 mm | - | 877 W/m² | - |
| 1778178383 | 18.89° C | 63% | 1013.5 hPa | 0 mm | - | 770 W/m² | - |
| 1778178079 | 20° C | 60% | 1013.7 hPa | 0 mm | - | 205 W/m² | - |
| 1778177776 | 20° C | 66% | 1013.7 hPa | 0 mm | - | 776 W/m² | - |
| 1778177473 | 20.56° C | 60% | 1013.4 hPa | 0 mm | - | 297 W/m² | - |
| 1778177169 | 21.11° C | 63% | 1013.7 hPa | 0 mm | - | 905 W/m² | - |
| 1778176867 | 20° C | 69% | 1013.8 hPa | 0 mm | - | 911 W/m² | - |
| 1778176562 | 20° C | 64% | 1013.8 hPa | 0 mm | - | 219 W/m² | - |
| 1778176260 | 20.56° C | 61% | 1013.8 hPa | 0 mm | - | 1062 W/m² | - |
| 1778175957 | 20° C | 63% | 1013.8 hPa | 0 mm | - | 933 W/m² | - |
| 1778175654 | 20° C | 65% | 1013.8 hPa | 0 mm | - | 980 W/m² | - |
| 1778175351 | 19.44° C | 66% | 1013.9 hPa | 0 mm | - | 593 W/m² | - |
| 1778175049 | 19.44° C | 63% | 1013.9 hPa | 0 mm | - | 303 W/m² | - |
* Rain latest hour (hover to see other rain measurements)
** Current wind speed in m/s (hover to see current wind gust speed)